QPF
0.00 0.00 0.00 0.00 0.00 0.00 0.00 0.00 0.00 0.00 0.00 0.00 0.00 0.00 0.00 0.00 0.00 0.00 0.00 0.00 0.00 0.00 0.00 0.00 0.00 0.00 0.00 0.00 0.00 0.00 0.00 0.00 0.00 0.00 0.00 0.00 0.00 0.00 0.00 0.00 0.00 0.01 0.03 0.06
0.00 0.00 0.00 0.00 0.00 0.00 0.00 0.00 0.00 0.00 0.00 0.00 0.00 0.00 0.00 0.00 0.00 0.00 0.00 0.00 0.00 0.00 0.00 0.00 0.00 0.00 0.00 0.00 0.00 0.00 0.00 0.00 0.00 0.00 0.00 0.00 0.00 0.00 0.00 0.00 0.00 0.03 0.05 0.00
0.00 0.00 0.00 0.00 0.00 0.00 0.00 0.00 0.00 0.00 0.00 0.00 0.00 0.00 0.00 0.00 0.00 0.00 0.00 0.00 0.00 0.00 0.00 0.00 0.00 0.00 0.00 0.00 0.00 0.00 0.00 0.00 0.00 0.00 0.00 0.00 0.00 0.00 0.00 0.01 0.01 0.02 0.06 0.02
0.00 0.00 0.00 0.00 0.00 0.00 0.00 0.00 0.00 0.00 0.00 0.00 0.00 0.00 0.00 0.00 0.00 0.00 0.00 0.00 0.00 0.00 0.00 0.00 0.00 0.00 0.00 0.00 0.00 0.00 0.00 0.00 0.00 0.00 0.00 0.00 0.00 0.00 0.00 0.04 0.05 0.04 0.02 0.00
0.00 0.00 0.00 0.00 0.00 0.00 0.00 0.00 0.00 0.00 0.00 0.00 0.00 0.00 0.00 0.00 0.00 0.00 0.00 0.00 0.00 0.00 0.00 0.00 0.00 0.00 0.00 0.00 0.00 0.00 0.00 0.00 0.00 0.00 0.00 0.00 0.00 0.00 0.00 0.00 0.06 0.02 0.01 0.00
0.00 0.00 0.00 0.00 0.00 0.00 0.00 0.00 0.00 0.00 0.00 0.00 0.00 0.00 0.00 0.00 0.00 0.00 0.00 0.00 0.00 0.00 0.00 0.00 0.00 0.00 0.00 0.00 0.00 0.00 0.00 0.00 0.00 0.00 0.00 0.00 0.00 0.00 0.00 0.00 0.08 0.01 0.00 0.00
0.00 0.00 0.00 0.00 0.00 0.00 0.00 0.00 0.00 0.00 0.00 0.00 0.00 0.00 0.00 0.00 0.00 0.00 0.00 0.00 0.00 0.00 0.00 0.00 0.00 0.00 0.00 0.00 0.00 0.00 0.00 0.00 0.00 0.00 0.00 0.00 0.00 0.00 0.00 0.01 0.05 0.02 0.00 0.00
0.00 0.00 0.00 0.00 0.00 0.00 0.00 0.00 0.00 0.00 0.00 0.00 0.00 0.00 0.00 0.00 0.00 0.00 0.00 0.00 0.00 0.00 0.00 0.00 0.00 0.00 0.00 0.00 0.00 0.00 0.00 0.00 0.00 0.00 0.00 0.00 0.00 0.00 0.00 0.01 0.07 0.01 0.00 0.00
0.00 0.00 0.00 0.00 0.00 0.00 0.00 0.00 0.00 0.00 0.00 0.00 0.00 0.00 0.00 0.00 0.00 0.00 0.00 0.00 0.00 0.00 0.00 0.00 0.00 0.00 0.00 0.00 0.00 0.00 0.00 0.00 0.00 0.00 0.00 0.00 0.00 0.00 0.00 0.04 0.03 0.00 0.00 0.00
0.00 0.00 0.00 0.00 0.00 0.00 0.00 0.00 0.00 0.00 0.00 0.00 0.00 0.00 0.00 0.00 0.00 0.00 0.00 0.00 0.00 0.00 0.00 0.00 0.00 0.00 0.00 0.00 0.00 0.00 0.00 0.00 0.00 0.00 0.00 0.00 0.00 0.00 0.00 0.05 0.01 0.00 0.00 0.00
0.00 0.00 0.00 0.00 0.00 0.00 0.00 0.00 0.00 0.00 0.00 0.00 0.00 0.00 0.00 0.00 0.00 0.00 0.00 0.00 0.00 0.00 0.00 0.00 0.00 0.00 0.00 0.00 0.00 0.00 0.00 0.00 0.00 0.00 0.00 0.00 0.00 0.00 0.02 0.02 0.00 0.00 0.00 0.00
0.00 0.00 0.00 0.00 0.00 0.00 0.00 0.00 0.00 0.00 0.00 0.00 0.00 0.00 0.00 0.00 0.00 0.00 0.00 0.00 0.00 0.00 0.00 0.00 0.00 0.00 0.00 0.00 0.00 0.00 0.00 0.00 0.00 0.00 0.00 0.00 0.00 0.00 0.00 0.00 0.00 0.00 0.00 0.00
0.00 0.00 0.00 0.00 0.00 0.00 0.00 0.00 0.00 0.00 0.00 0.00 0.00 0.00 0.00 0.00 0.00 0.00 0.00 0.00 0.00 0.00 0.00 0.00 0.00 0.00 0.00 0.00 0.00 0.00 0.00 0.00 0.00 0.00 0.00 0.00 0.00 0.00 0.00 0.01 0.00 0.00 0.00 0.00
0.00 0.00 0.00 0.00 0.00 0.00 0.00 0.00 0.00 0.00 0.00 0.00 0.00 0.00 0.00 0.00 0.00 0.00 0.00 0.00 0.00 0.00 0.00 0.00 0.00 0.00 0.00 0.00 0.00 0.00 0.00 0.00 0.00 0.00 0.00 0.00 0.00 0.00 0.02 0.03 0.05 0.01 0.00 0.00
0.00 0.00 0.00 0.00 0.00 0.00 0.00 0.00 0.00 0.00 0.00 0.00 0.00 0.00 0.00 0.00 0.00 0.00 0.00 0.00 0.00 0.00 0.00 0.00 0.00 0.00 0.00 0.00 0.00 0.00 0.00 0.00 0.00 0.00 0.00 0.00 0.00 0.02 0.04 0.12 0.04 0.00 0.00 0.00
0.00 0.00 0.00 0.00 0.00 0.00 0.00 0.00 0.00 0.00 0.00 0.00 0.00 0.00 0.00 0.00 0.00 0.00 0.00 0.00 0.00 0.00 0.00 0.00 0.00 0.00 0.00 0.00 0.00 0.00 0.00 0.00 0.00 0.00 0.00 0.00 0.01 0.06 0.12 0.19 0.03 0.00 0.00 0.00
0.00 0.00 0.00 0.00 0.00 0.00 0.00 0.00 0.00 0.00 0.00 0.00 0.00 0.00 0.00 0.00 0.00 0.00 0.00 0.00 0.00 0.00 0.00 0.00 0.00 0.00 0.00 0.00 0.00 0.00 0.00 0.00 0.00 0.00 0.00 0.00 0.03 0.16 0.31 0.22 0.03 0.00 0.00 0.00
0.00 0.00 0.00 0.00 0.00 0.00 0.00 0.00 0.00 0.00 0.00 0.00 0.00 0.00 0.00 0.00 0.00 0.00 0.00 0.00 0.00 0.00 0.00 0.00 0.00 0.00 0.00 0.00 0.00 0.00 0.00 0.00 0.00 0.00 0.00 0.04 0.23 0.32 0.21 0.09 0.02 0.00 0.00 0.00
0.00 0.00 0.00 0.00 0.00 0.00 0.00 0.00 0.00 0.00 0.00 0.00 0.00 0.00 0.00 0.00 0.00 0.00 0.00 0.00 0.00 0.00 0.00 0.00 0.00 0.00 0.00 0.00 0.00 0.00 0.00 0.00 0.00 0.00 0.00 0.11 0.26 0.32 0.50 0.31 0.10 0.02 0.00 0.00
0.00 0.00 0.00 0.00 0.00 0.00 0.00 0.00 0.00 0.00 0.00 0.00 0.00 0.00 0.00 0.00 0.00 0.00 0.00 0.00 0.00 0.00 0.00 0.00 0.00 0.00 0.00 0.00 0.00 0.00 0.00 0.00 0.00 0.00 0.00 0.08 0.11 0.78 0.76 0.15 0.03 0.00 0.01 0.01
0.00 0.00 0.00 0.00 0.00 0.00 0.00 0.00 0.00 0.00 0.00 0.00 0.00 0.00 0.00 0.00 0.00 0.00 0.00 0.00 0.00 0.00 0.00 0.00 0.00 0.00 0.00 0.00 0.00 0.00 0.00 0.00 0.01 0.08 0.51 0.85 0.44 0.28 0.08 0.00 0.02 0.06 0.09 0.05
0.00 0.00 0.00 0.00 0.00 0.00 0.00 0.00 0.00 0.00 0.00 0.00 0.01 0.01 0.01 0.01 0.00 0.00 0.00 0.00 0.00 0.00 0.00 0.00 0.00 0.00 0.00 0.00 0.00 0.00 0.02 0.11 0.35 1.05 1.78 1.54 0.81 0.35 0.02 0.01 0.04 0.08 0.09 0.03
0.00 0.00 0.00 0.00 0.00 0.00 0.00 0.00 0.00 0.00 0.00 0.00 0.01 0.01 0.00 0.02 0.03 0.02 0.02 0.01 0.00 0.00 0.00 0.00 0.00 0.00 0.00 0.00 0.00 0.00 0.03 0.20 0.74 1.08 0.90 0.85 0.58 0.14 0.00 0.02 0.03 0.03 0.03 0.01
0.00 0.00 0.00 0.00 0.00 0.00 0.00 0.00 0.00 0.00 0.00 0.00 0.00 0.00 0.00 0.00 0.00 0.00 0.00 0.00 0.00 0.00 0.00 0.00 0.00 0.00 0.00 0.00 0.00 0.00 0.01 0.04 0.10 0.62 0.68 0.53 0.17 0.04 0.02 0.03 0.06 0.06 0.01 0.00
0.02 0.01 0.00 0.00 0.00 0.00 0.00 0.00 0.00 0.00 0.00 0.00 0.00 0.00 0.00 0.00 0.00 0.00 0.00 0.00 0.00 0.00 0.00 0.00 0.00 0.00 0.00 0.00 0.00 0.01 0.00 0.00 0.00 0.02 0.01 0.01 0.03 0.06 0.11 0.08 0.03 0.00 0.00 0.00
0.02 0.00 0.00 0.00 0.00 0.00 0.00 0.00 0.00 0.00 0.00 0.00 0.00 0.00 0.00 0.00 0.00 0.00 0.00 0.00 0.00 0.00 0.00 0.00 0.00 0.00 0.00 0.00 0.00 0.01 0.02 0.00 0.00 0.00 0.00 0.00 0.03 0.05 0.06 0.02 0.00 0.00 0.00 0.00
MSLP
1006.50 1006.13 1005.48 1005.27 1005.42 1005.41 1005.42 1005.13 1004.69 1004.57 1005.17 1005.33 1005.70 1006.00 1006.26 1006.73 1007.06 1007.27 1007.43 1007.92 1008.27 1008.40 1008.48 1009.14 1009.60 1010.02 1010.65 1011.22 1011.72 1012.22 1012.80 1013.36 1014.03 1014.35 1014.65 1014.69 1014.53 1014.72 1014.85 1014.85 1015.11 1015.19 1015.40 1015.62
1006.08 1005.12 1005.23 1005.33 1005.38 1005.28 1005.25 1004.97 1004.54 1004.66 1005.33 1005.55 1005.68 1005.44 1005.42 1005.84 1005.90 1005.98 1006.60 1007.12 1007.40 1007.73 1008.22 1008.54 1009.04 1009.63 1010.02 1010.49 1011.00 1011.80 1012.20 1012.81 1013.36 1013.83 1014.07 1014.13 1014.24 1014.41 1014.44 1014.39 1014.61 1014.79 1015.00 1015.11
1005.10 1004.74 1004.90 1004.95 1005.06 1004.89 1004.67 1004.82 1004.74 1005.15 1005.46 1005.72 1005.47 1004.64 1005.02 1005.30 1005.59 1005.91 1006.15 1006.42 1006.70 1006.78 1007.26 1007.74 1008.27 1008.84 1009.27 1009.85 1010.42 1010.89 1011.45 1012.08 1012.70 1013.18 1013.79 1014.10 1014.33 1014.43 1014.36 1014.46 1014.47 1014.53 1014.78 1014.93
1005.11 1004.80 1004.81 1004.72 1004.65 1004.74 1004.60 1005.00 1005.04 1005.16 1005.32 1005.64 1006.11 1005.05 1004.57 1004.77 1004.88 1005.12 1005.31 1005.60 1005.73 1006.11 1006.67 1007.08 1007.54 1008.10 1008.52 1008.98 1009.59 1010.18 1010.92 1011.56 1012.22 1012.81 1013.19 1013.33 1013.50 1013.66 1013.96 1014.29 1014.69 1014.76 1014.73 1014.67
1004.62 1004.59 1004.41 1004.25 1004.43 1004.56 1004.88 1005.23 1005.25 1005.32 1005.46 1005.82 1006.02 1005.70 1004.08 1004.36 1003.96 1003.96 1004.22 1004.53 1004.98 1005.28 1005.66 1006.09 1006.63 1007.12 1007.51 1008.31 1008.92 1009.41 1010.19 1010.98 1011.59 1012.24 1012.49 1012.88 1013.17 1013.34 1013.76 1014.18 1014.54 1014.72 1014.82 1014.73
1004.81 1004.83 1004.40 1003.96 1004.40 1004.50 1004.83 1004.97 1005.05 1005.33 1005.16 1005.16 1005.94 1005.65 1003.16 1003.10 1002.68 1002.56 1003.11 1003.60 1004.06 1004.49 1004.89 1005.21 1005.72 1006.38 1006.94 1007.63 1008.25 1008.87 1009.57 1010.04 1010.90 1011.64 1012.14 1012.41 1012.63 1013.07 1013.44 1013.79 1013.98 1014.42 1014.60 1014.85
1004.69 1004.27 1004.15 1004.21 1004.27 1004.67 1004.62 1004.34 1004.25 1004.35 1004.72 1005.01 1005.72 1005.35 1002.78 1002.25 1001.99 1001.94 1002.12 1002.63 1003.20 1003.75 1004.18 1004.41 1004.91 1005.62 1006.32 1007.00 1007.66 1008.28 1009.01 1009.55 1010.25 1010.86 1011.38 1011.83 1012.14 1012.65 1012.93 1013.34 1013.77 1014.24 1014.45 1014.65
1004.22 1003.77 1003.48 1003.40 1003.34 1003.41 1003.89 1003.87 1003.70 1003.76 1004.28 1004.55 1005.07 1003.43 1001.45 1001.51 1001.55 1001.65 1001.88 1002.18 1002.49 1002.90 1003.22 1003.68 1004.26 1005.03 1005.70 1006.26 1006.96 1007.60 1008.24 1008.84 1009.50 1010.06 1010.53 1011.20 1011.78 1012.08 1012.54 1012.97 1013.61 1013.69 1013.94 1014.38
1004.08 1003.68 1003.30 1003.21 1003.08 1003.15 1004.01 1004.11 1004.05 1003.76 1004.84 1004.41 1003.37 1002.18 1001.22 1001.04 1000.87 1001.08 1001.31 1001.58 1001.76 1002.24 1002.83 1003.32 1003.83 1004.40 1004.99 1005.49 1006.04 1006.69 1007.38 1008.06 1008.69 1009.18 1009.95 1010.54 1011.15 1011.60 1011.96 1012.67 1013.20 1013.42 1013.83 1014.32
1003.93 1003.68 1003.30 1003.08 1003.23 1003.64 1003.22 1003.60 1003.89 1003.84 1003.53 1003.02 1002.39 1001.77 1000.75 1000.47 1000.51 1000.82 1000.97 1000.96 1001.20 1001.68 1002.20 1002.70 1003.25 1003.67 1004.17 1004.57 1005.19 1005.97 1006.65 1007.28 1007.77 1008.42 1009.24 1009.73 1010.32 1010.85 1011.45 1012.18 1012.64 1013.17 1013.71 1014.23
1003.99 1003.78 1003.33 1003.20 1002.81 1002.68 1003.53 1003.37 1003.73 1003.59 1003.43 1002.50 1001.77 1000.54 1000.29 1000.58 1000.68 1000.61 1000.54 1000.73 1000.88 1001.21 1001.57 1002.09 1002.67 1003.15 1003.69 1004.21 1004.73 1005.24 1005.99 1006.68 1007.23 1007.80 1008.57 1009.11 1009.72 1010.39 1011.15 1011.62 1012.34 1013.02 1013.60 1014.18
1003.93 1003.52 1002.92 1002.68 1002.86 1003.11 1002.80 1002.76 1002.71 1002.53 1003.11 1003.01 1002.11 1000.37 1000.20 1000.92 1001.55 1001.74 1001.37 1001.05 1000.92 1001.02 1001.36 1001.61 1001.98 1002.71 1003.35 1003.76 1004.26 1004.69 1005.23 1005.92 1006.46 1007.04 1007.84 1008.59 1009.48 1010.05 1010.53 1011.26 1012.12 1012.86 1013.35 1013.90
1003.98 1003.68 1003.01 1002.53 1003.02 1003.18 1002.67 1002.78 1002.94 1002.67 1002.72 1002.45 1001.57 1000.30 1000.63 1001.43 1001.87 1002.21 1002.09 1001.85 1001.74 1001.79 1001.71 1001.64 1001.70 1002.07 1002.63 1003.14 1003.72 1004.21 1004.76 1005.34 1006.06 1006.67 1007.48 1008.20 1008.97 1009.49 1010.14 1010.88 1011.73 1012.66 1013.43 1014.21
1003.74 1003.56 1002.95 1002.48 1002.37 1002.40 1002.53 1002.68 1002.79 1002.35 1002.17 1002.35 1001.65 1000.88 1000.52 1001.19 1002.09 1002.78 1002.58 1002.12 1001.59 1001.47 1001.72 1001.96 1001.88 1001.95 1002.28 1002.74 1003.20 1003.84 1004.37 1005.04 1005.67 1006.38 1007.15 1007.67 1008.03 1008.63 1009.56 1010.72 1011.51 1012.14 1013.12 1014.05
1003.97 1003.47 1003.64 1003.29 1003.03 1002.76 1002.64 1002.72 1002.86 1002.70 1002.54 1002.12 1002.13 1001.93 1001.77 1002.72 1002.99 1002.83 1002.25 1002.03 1001.45 1001.23 1001.22 1001.38 1001.87 1002.19 1002.17 1002.50 1002.96 1003.59 1004.21 1004.69 1005.17 1005.94 1006.61 1007.02 1007.75 1008.74 1009.80 1010.99 1011.82 1012.56 1012.85 1013.52
1004.17 1003.90 1003.91 1003.65 1003.64 1003.39 1002.92 1003.14 1003.20 1003.40 1003.39 1003.13 1002.94 1002.48 1003.06 1003.46 1003.32 1002.81 1002.07 1001.37 1000.80 1000.85 1000.77 1000.86 1001.16 1001.49 1001.93 1002.01 1002.36 1002.99 1003.73 1004.29 1004.79 1005.45 1006.15 1007.25 1008.09 1008.99 1009.93 1011.07 1012.03 1013.08 1013.16 1013.51
1004.38 1003.98 1004.04 1004.03 1004.35 1004.00 1003.62 1003.37 1003.43 1003.67 1003.78 1003.40 1003.00 1002.81 1003.26 1003.20 1003.20 1002.91 1002.44 1001.71 1001.06 1000.32 999.84 1000.04 1000.17 1000.45 1001.10 1001.76 1002.50 1002.49 1003.30 1004.29 1005.06 1005.71 1006.56 1007.62 1008.42 1009.33 1010.45 1011.62 1012.19 1012.93 1013.09 1013.80
1004.91 1004.73 1004.53 1004.46 1004.77 1004.44 1004.00 1004.11 1004.07 1003.85 1003.63 1003.61 1003.30 1003.29 1003.56 1003.52 1003.28 1002.97 1002.63 1002.12 1001.29 1000.56 1000.01 999.70 999.67 999.95 1000.30 1000.97 1001.73 1002.62 1003.32 1003.99 1004.59 1005.48 1006.74 1007.68 1008.34 1009.20 1010.20 1011.09 1012.37 1013.45 1013.20 1013.51
1005.71 1005.13 1004.97 1004.78 1004.54 1004.65 1004.19 1004.04 1004.11 1003.92 1003.11 1003.06 1002.85 1003.08 1003.34 1003.35 1003.29 1002.59 1002.40 1002.19 1001.63 1000.80 1000.01 999.48 999.58 999.80 1000.40 1000.67 1001.44 1002.22 1003.04 1003.86 1004.82 1005.90 1006.63 1007.27 1007.84 1008.40 1008.54 1008.16 1010.68 1012.86 1013.95 1014.32
1005.90 1005.76 1005.31 1005.18 1004.14 1003.59 1003.11 1003.61 1004.11 1004.25 1003.22 1002.52 1003.19 1003.41 1003.45 1003.45 1002.72 1002.73 1002.58 1002.34 1001.69 1000.84 1000.24 999.71 999.55 999.98 1000.29 1000.85 1001.66 1002.13 1002.84 1003.94 1004.98 1005.66 1006.17 1006.58 1006.46 1007.21 1008.32 1008.62 1009.64 1011.85 1013.29 1014.10
1006.04 1005.91 1005.50 1005.33 1004.71 1003.90 1003.88 1004.33 1004.54 1004.45 1004.67 1004.05 1004.09 1004.10 1003.83 1003.70 1003.81 1003.53 1003.54 1003.03 1002.35 1001.45 1000.94 1000.49 1000.21 1000.47 1000.87 1001.64 1002.16 1003.05 1004.17 1005.11 1005.84 1006.92 1008.46 1008.05 1007.77 1009.30 1009.52 1010.14 1011.07 1012.06 1013.38 1014.11
1006.65 1006.28 1006.05 1006.05 1005.46 1005.08 1004.86 1005.07 1004.86 1005.28 1004.93 1004.98 1004.86 1004.73 1004.56 1004.55 1004.27 1004.05 1003.95 1003.37 1002.53 1002.11 1001.38 1001.25 1001.05 1001.31 1001.68 1002.21 1002.86 1003.64 1004.49 1005.51 1005.56 1006.77 1005.86 1005.36 1009.11 1009.06 1010.45 1010.91 1011.42 1012.31 1013.46 1014.20
1007.94 1007.22 1006.63 1006.64 1005.97 1005.74 1005.55 1005.26 1005.02 1005.13 1005.09 1005.15 1005.00 1004.68 1004.60 1004.56 1004.13 1003.92 1003.50 1002.98 1002.54 1002.46 1002.34 1001.91 1002.10 1002.63 1002.83 1002.95 1003.44 1004.32 1004.77 1004.99 1005.39 1005.53 1005.46 1005.86 1006.91 1008.28 1010.78 1010.84 1011.43 1012.65 1013.37 1013.86
1008.12 1008.05 1007.40 1006.92 1006.12 1005.76 1005.51 1005.36 1005.03 1004.98 1004.91 1004.90 1004.77 1004.51 1004.42 1004.38 1003.96 1003.45 1003.24 1002.97 1002.79 1002.95 1002.56 1002.81 1002.95 1003.10 1003.98 1004.03 1004.19 1004.58 1004.34 1004.71 1005.18 1005.76 1006.52 1007.37 1007.39 1008.60 1009.75 1010.00 1011.12 1012.20 1012.62 1013.58
1008.70 1008.47 1007.55 1006.70 1005.96 1005.46 1005.55 1005.45 1005.16 1004.72 1004.50 1004.29 1004.28 1004.20 1003.96 1003.80 1003.51 1003.30 1003.15 1003.07 1003.05 1003.16 1003.56 1003.20 1003.38 1003.33 1004.33 1005.17 1004.80 1004.75 1004.85 1005.42 1005.81 1005.96 1006.50 1007.22 1007.96 1008.73 1009.49 1010.61 1011.00 1011.65 1012.50 1012.99
1008.30 1007.46 1007.13 1005.92 1005.85 1005.75 1005.12 1005.06 1005.05 1004.70 1004.27 1003.96 1003.82 1003.64 1003.46 1003.22 1003.01 1002.84 1002.88 1003.02 1003.12 1003.11 1003.33 1003.60 1003.91 1003.48 1004.66 1005.30 1004.96 1005.15 1005.38 1005.54 1006.01 1006.32 1006.73 1007.28 1007.99 1009.08 1009.65 1010.54 1011.82 1012.50 1012.52 1013.18
Thickness
5817 5805 5800 5809 5810 5810 5806 5804 5806 5821 5821 5814 5805 5804 5808 5810 5812 5811 5813 5811 5809 5811 5818 5815 5813 5812 5809 5806 5803 5800 5794 5791 5786 5782 5778 5777 5777 5777 5777 5776 5774 5773 5770 5767
5808 5803 5814 5815 5810 5808 5806 5803 5811 5822 5819 5813 5805 5805 5818 5817 5817 5824 5819 5815 5815 5814 5814 5816 5814 5812 5811 5809 5807 5801 5799 5795 5791 5787 5786 5785 5783 5781 5780 5779 5778 5776 5773 5771
5804 5815 5818 5813 5807 5805 5811 5805 5810 5806 5812 5813 5809 5812 5808 5819 5822 5822 5823 5825 5824 5820 5816 5817 5816 5816 5817 5813 5810 5807 5803 5800 5797 5793 5787 5785 5783 5780 5779 5778 5779 5778 5775 5772
5806 5820 5812 5808 5804 5811 5799 5812 5810 5806 5805 5792 5803 5788 5807 5812 5813 5816 5822 5824 5826 5826 5825 5823 5821 5819 5820 5819 5819 5814 5807 5803 5799 5795 5791 5788 5785 5781 5782 5779 5777 5776 5775 5774
5805 5806 5807 5805 5807 5814 5804 5809 5805 5804 5800 5797 5790 5786 5815 5808 5811 5816 5823 5829 5831 5833 5832 5829 5828 5828 5829 5826 5823 5820 5814 5806 5803 5798 5796 5792 5788 5787 5786 5781 5776 5773 5773 5773
5806 5814 5815 5817 5815 5816 5815 5807 5804 5800 5801 5788 5779 5783 5815 5813 5824 5831 5833 5835 5837 5836 5837 5839 5839 5837 5832 5832 5829 5824 5817 5813 5808 5802 5797 5795 5792 5788 5785 5782 5776 5774 5773 5772
5796 5803 5815 5817 5803 5808 5808 5804 5781 5778 5776 5775 5776 5774 5811 5831 5838 5841 5841 5841 5843 5842 5841 5843 5842 5838 5835 5831 5829 5827 5820 5815 5812 5807 5802 5799 5797 5792 5788 5784 5778 5773 5771 5771
5776 5777 5805 5821 5814 5808 5804 5807 5787 5757 5767 5782 5773 5789 5827 5841 5845 5847 5848 5848 5847 5846 5851 5849 5846 5843 5838 5835 5832 5829 5825 5821 5818 5812 5808 5804 5800 5797 5792 5787 5780 5778 5777 5774
5769 5775 5806 5812 5817 5819 5792 5789 5809 5790 5769 5772 5795 5815 5841 5842 5843 5847 5848 5846 5847 5847 5849 5848 5848 5846 5843 5841 5838 5835 5830 5826 5822 5819 5813 5808 5804 5800 5796 5789 5784 5781 5779 5775
5786 5771 5795 5805 5812 5805 5810 5811 5788 5786 5765 5765 5792 5793 5814 5838 5843 5845 5846 5848 5852 5853 5852 5853 5850 5850 5849 5849 5847 5842 5837 5830 5828 5823 5816 5812 5808 5806 5801 5794 5787 5781 5778 5774
5788 5783 5785 5796 5797 5799 5792 5792 5786 5794 5788 5783 5780 5806 5843 5838 5844 5849 5855 5857 5858 5858 5857 5857 5855 5855 5852 5850 5848 5845 5840 5835 5831 5827 5820 5816 5812 5807 5801 5796 5788 5781 5776 5770
5788 5785 5774 5787 5803 5801 5804 5800 5805 5790 5775 5781 5788 5810 5851 5842 5839 5841 5849 5859 5864 5863 5861 5862 5860 5856 5852 5850 5848 5846 5844 5839 5836 5832 5825 5818 5812 5807 5803 5795 5788 5780 5775 5771
5779 5772 5765 5777 5786 5790 5793 5795 5794 5797 5794 5780 5789 5813 5847 5840 5836 5837 5840 5847 5851 5852 5855 5860 5862 5860 5856 5853 5849 5846 5844 5841 5838 5834 5826 5819 5812 5807 5801 5795 5788 5779 5771 5763
5785 5771 5776 5772 5782 5793 5785 5791 5794 5804 5793 5786 5798 5815 5839 5839 5830 5828 5833 5843 5851 5853 5851 5851 5856 5858 5857 5855 5852 5847 5845 5842 5838 5833 5826 5821 5818 5813 5804 5794 5787 5782 5771 5760
5779 5766 5763 5771 5778 5785 5787 5789 5789 5791 5796 5795 5798 5800 5824 5817 5819 5826 5838 5842 5849 5852 5854 5853 5850 5851 5856 5855 5852 5849 5845 5842 5840 5833 5827 5824 5818 5809 5799 5787 5780 5773 5769 5762
5772 5758 5762 5762 5770 5778 5778 5781 5785 5783 5781 5785 5789 5798 5812 5816 5821 5826 5837 5843 5850 5853 5855 5858 5857 5856 5854 5856 5854 5851 5847 5843 5841 5834 5827 5818 5810 5801 5791 5780 5768 5759 5758 5756
5761 5762 5758 5749 5754 5762 5762 5777 5780 5777 5780 5786 5785 5804 5808 5810 5813 5820 5827 5838 5844 5855 5864 5863 5864 5864 5861 5856 5852 5852 5848 5841 5833 5826 5819 5808 5799 5789 5777 5764 5752 5750 5751 5745
5749 5746 5742 5744 5743 5724 5763 5775 5776 5776 5782 5784 5788 5795 5800 5804 5812 5820 5828 5831 5840 5850 5858 5864 5869 5867 5866 5862 5857 5849 5843 5837 5832 5823 5810 5801 5793 5783 5773 5762 5749 5737 5742 5740
5737 5741 5730 5731 5731 5737 5753 5765 5765 5764 5780 5789 5789 5792 5796 5801 5806 5817 5827 5831 5836 5846 5856 5863 5867 5867 5860 5860 5855 5848 5841 5835 5826 5814 5807 5799 5791 5785 5781 5776 5748 5731 5721 5718
5728 5727 5730 5719 5729 5723 5763 5770 5773 5770 5761 5793 5785 5783 5784 5789 5789 5798 5816 5822 5831 5843 5851 5857 5863 5861 5858 5854 5848 5842 5835 5826 5816 5809 5803 5799 5794 5786 5773 5768 5755 5734 5719 5709
5713 5714 5716 5712 5718 5739 5755 5758 5763 5741 5750 5772 5774 5773 5777 5775 5781 5792 5799 5806 5819 5831 5837 5846 5850 5848 5846 5840 5835 5826 5816 5809 5800 5790 5768 5727 5749 5749 5747 5746 5737 5726 5712 5704
5706 5707 5708 5700 5703 5708 5743 5743 5738 5743 5753 5755 5758 5761 5762 5765 5772 5778 5783 5793 5806 5813 5825 5831 5834 5832 5831 5830 5823 5813 5807 5798 5800 5782 5777 5756 5727 5724 5725 5728 5726 5717 5706 5696
5688 5703 5706 5705 5709 5721 5730 5735 5747 5746 5744 5746 5750 5758 5760 5759 5765 5771 5775 5786 5795 5802 5807 5816 5815 5810 5813 5815 5811 5797 5798 5796 5792 5787 5781 5776 5750 5736 5719 5720 5717 5706 5699 5693
5689 5690 5695 5697 5708 5714 5724 5732 5739 5743 5743 5745 5749 5752 5756 5752 5760 5769 5774 5779 5785 5787 5795 5798 5798 5796 5789 5794 5794 5790 5791 5793 5785 5778 5768 5754 5753 5737 5725 5721 5712 5702 5699 5689
5682 5681 5687 5694 5706 5716 5716 5721 5729 5736 5742 5745 5746 5746 5750 5754 5756 5761 5765 5771 5775 5777 5777 5784 5782 5782 5777 5772 5778 5783 5783 5776 5771 5769 5763 5756 5746 5734 5725 5713 5709 5704 5695 5690
5678 5684 5685 5695 5705 5707 5715 5722 5723 5725 5731 5739 5740 5741 5746 5749 5751 5756 5759 5762 5766 5769 5770 5768 5767 5767 5762 5760 5769 5768 5768 5766 5759 5756 5751 5745 5738 5727 5720 5709 5698 5686 5687 5678